Regional Weather Roundup
Issued by NWS

Home | Current Version | Previous Version | Graphics & Text | Print | Product List | Glossary On
Versions: 1 2 3 4 5 6 7 8 9 10 11 12 13 14 15 16 17 18 19 20 21 22 23 24 25 26 27 28 29 30 31 32 33 34 35 36 37 38 39 40 41 42 43 44 45 46 47 48 49 50
758
ASUS43 KLOT 232008
RWRIL

ILLINOIS REGIONAL WEATHER ROUNDUP
NATIONAL WEATHER SERVICE CHICAGO/ROMEOVILLE IL
300 PM CDT SAT JUL 23 2016

NOTE: "FAIR" INDICATES FEW OR NO CLOUDS BELOW 12,000 FEET WITH NO
SIGNIFICANT WEATHER AND/OR OBSTRUCTIONS TO VISIBILITY.

* THESE STATIONS ARE NOT UNDER NWS QUALITY CONTROL. THEY ALSO MAY NOT
  REPORT WEATHER SUCH AS PRECIPITATION OR FOG.

ILZ001-002-007-009-015-016-024-232100-
NORTHWEST ILLINOIS

CITY           SKY/WX    TMP DP  RH WIND       PRES   REMARKS
MOLINE         CLOUDY    90  80  72 SE10      29.90F HX 107
SAVANNA*       CLOUDY    87  79  78 SE9       29.92F HX 101
$$

ILZ003-004-008-010-011-017-018-232100-
NORTH CENTRAL ILLINOIS

CITY           SKY/WX    TMP DP  RH WIND       PRES   REMARKS
ROCKFORD       CLOUDY    86  77  74 CALM      29.96F HX  97
FREEPORT*      CLOUDY    83  77  83 CALM      29.98F HX  92
ROCHELLE*      CLOUDY    85  79  83 S6        29.96F HX  97
DE KALB*       CLOUDY    87  79  76 S9        29.97F HX 100
$$

ILZ005-006-012>014-019>023-232100-
NORTHEAST ILLINOIS

CITY           SKY/WX    TMP DP  RH WIND       PRES   REMARKS
CHICAGO-OHARE  CLOUDY    90  73  57 SW9       29.95F HX  98
CHICAGO-MIDWAY CLOUDY    91  73  55 SW8       29.95F HX  99
AURORA         PTSUNNY   89  78  70 S8        29.96F HX 103
LANSING*       CLOUDY    90  74  59 SW9       29.97S HX  98
JOLIET*        CLOUDY    91  78  65 SW6       29.95F HX 105
WAUKEGAN       CLOUDY    84  77  79 SE7       29.96F HX  94
DUPAGE AIRPORT CLOUDY    90  75  61 S6        29.95F HX 100
WHEELING       CLOUDY    90  71  53 SW8       29.96F HX  96
MORRIS*        CLOUDY    88  77  69 SW6       29.95F HX 101
ROMEOVILLE*    CLOUDY    89  75  64 S5        29.96F HX  98
NORTHERLY ISL    N/A     83  76  79 E3          N/A  HX  91
$$

LMZ740>746-232100-
SOUTHERN LAKE MICHIGAN

STATION/POSITION SKY/WX   TEMP    WIND        PRES    VSBY  WAVE
                          AIR SEA DIR/SP/G                  HT/PER
                          (F)     (DEG/KT/KT) (MB)    (MI)  (FT/S)
SOUTHERN BUOY              80 78  140/  2/  2 1014.2F         0
WILMETTE HARBOR            78 74  120/  4/  6   N/A           0
HARRISON CRIB              82     120/  8/  8   N/A
BURNHAM HARBOR             82     140/  3/  5   N/A
CALUMET HARBOR             81      50/  6/  7 1014.5F
BURNS HARBOR               82      80/  6/  8 1015.9S
MICHIGAN CITY              79      30/  5/  5   N/A
MICHIGAN CITY 6N           81 79   60/  2/  2   N/A           1
ST. JOSEPH                 80     360/  2/  4 1014.3F         0
$$

ILZ025>027-034>036-040-047-049-050-058-095>099-232100-
WEST-CENTRAL ILLINOIS

CITY           SKY/WX    TMP DP  RH WIND       PRES   REMARKS
QUINCY         SUNNY     93  77  59 S9        29.93F HX 107
GALESBURG*     MOSUNNY   90  79  71 SE8       29.93F HX 106
MACOMB*        MOSUNNY   89  79  72 S9        29.96F HX 104
JACKSONVILLE*  SUNNY     90  77  66 SE6       29.95F HX 103
PITTSFIELD*    SUNNY     91  82  75 SE7       29.96F HX 112
$$

ILZ028>032-037-038-041>044-048-051>054-059>061-232100-
CENTRAL ILLINOIS

CITY           SKY/WX    TMP DP  RH WIND       PRES   REMARKS
PONTIAC        CLOUDY    89  79  72 SE6       29.98F HAZE    HX 105
BLOOMINGTON    MOSUNNY   89  75  63 S9        29.98F HX  99
DECATUR        MOSUNNY   90  75  61 S8        29.98F HX 100
PEORIA         CLOUDY    90  77  65 S8        29.95F HX 103
LACON*         MOSUNNY   89  75  64 S6        29.93F HX  99
LINCOLN*       SUNNY     91  78  66 SE6       29.96F HX 105
SPRINGFIELD    SUNNY     91  76  61 S6        29.96F HX 103
TAYLORVILLE    MOSUNNY   89  77  69 N3        29.98F HX 101
$$

ILZ033-039-045-046-055>057-062-063-232100-
EAST-CENTRAL ILLINOIS

CITY           SKY/WX    TMP DP  RH WIND       PRES   REMARKS
CHAMPAIGN      CLOUDY    87  76  69 S6        29.99F HX  97
RANTOUL*       PTSUNNY   90  79  70 S5        29.99  HX 105
MATTOON        MOSUNNY   88  74  63 S6        29.99F HX  96
PARIS*         MOSUNNY   89  76  65 CALM      30.00F HX 100
$$

ILZ079-100>102-232100-
SOUTHWEST ILLINOIS

CITY           SKY/WX    TMP DP  RH WIND       PRES   REMARKS
BELLEVILLE     MOSUNNY   92  78  63 CALM      29.95F HX 106
CAHOKIA*       MOSUNNY   95  72  47 SE7       29.95F HX 103
SPARTA*        SUNNY     89  75  62 E3        29.98F HX  99
$$

ILZ064>066-069>071-074>076-080>082-084>086-088>090-092>094-232100-
SOUTH-CENTRAL ILLINOIS

CITY           SKY/WX    TMP DP  RH WIND       PRES   REMARKS
CARBONDALE     SUNNY     91  74  57 VRB3      29.97F HX 100
CAIRO*         MOSUNNY   89  77  68 NE3       29.95F HX 101
EFFINGHAM*     MOSUNNY   89  77  67 E6        30.00F HX 101
MARION         PTSUNNY   91  77  62 N6        29.98F HX 105
MT. VERNON     PTSUNNY   91  75  59 E5        29.98F HX 102
CENTRALIA*     PTSUNNY   90  78  66 E3        29.97F HX 104
SALEM*         PTSUNNY   89  74  61 CALM      29.98F HX  99
METROPOLIS*    SUNNY     90  76  63 CALM      29.97F HX 102
$$

ILZ067-068-072-073-078-083-087-091-232100-
SOUTHEAST ILLINOIS

CITY           SKY/WX    TMP DP  RH WIND       PRES   REMARKS
LAWRENCEVILLE  SUNNY     89  78  70 SE3       29.99S HX 103
FLORA*         MOSUNNY   91  77  64 SE5       29.98F HX 103
FAIRFIELD*     MOSUNNY   89  76  66 S3        29.97F HX 100
HARRISBURG*    MOSUNNY   89  78  69 CALM      29.98F HX 102
CARMI*         SUNNY     89  77  69 CALM      29.98S HX 101
$$

ABBREVIATIONS USED IN REMARKS
   TC - TEMPERATURE IN CELSIUS
  WCI - WIND CHILL INDEX
   HX - HEAT INDEX
  VSB - VISIBILITY
$$





USA.gov is the U.S. government's official web portal to all federal, state and local government web resources and services.